KB5SJ Weather Reports


time (UTC)temp
C
wind
direction
speed
KPH
gust
KPH
rain 1hr
cm
rain 24hr
cm
rain mn
cm
humidity
%
barometer
mb
20260502021036 13 203 1.6 8.0 0.25 8.38 8.33 99 1013.5
20260502020016 13 90 3.2 9.7 0.23 8.33 8.28 99 1012.7
20260502015016 13 23 3.2 11.3 0.15 8.23 8.18 99 1013.1
20260502014036 13 338 4.8 12.9 0.15 8.18 8.13 99 1013.7
20260502013016 13 315 3.2 9.7 0.13 8.15 8.10 99 1012.8
20260502012017 13 0 3.2 6.4 0.18 8.15 8.10 99 1012.2
20260502011056 13 45 4.8 12.9 0.18 8.13 8.08 99 1012.0
20260502010016 14 23 3.2 9.7 0.18 8.10 8.05 99 1012.6
20260502005016 14 23 3.2 12.9 0.20 8.08 8.03 99 1012.4
20260502004016 14 315 4.8 8.0 0.23 8.03 7.98 100 1012.4
20260502003016 15 0 3.2 9.7 0.36 8.03 7.98 100 1011.6
20260502002016 15 23 3.2 9.7 0.38 7.98 7.92 99 1011.4
20260502001016 15 68 3.2 14.5 0.38 7.95 7.90 99 1011.5
20260502000016 15 90 1.6 11.3 0.38 7.92 7.87 99 1011.5
20260501235036 15 135 1.6 8.0 0.36 7.87 7.82 99 1011.8
20260501234016 15 90 1.6 6.4 0.30 7.80 7.75 99 1011.4
20260501233016 15 248 1.6 3.2 0.18 7.67 7.62 99 1011.8
20260501232016 15 293 3.2 9.7 0.10 7.59 7.54 99 1010.7
20260501231036 15 113 3.2 8.0 0.13 7.57 7.52 99 1009.6
20260501230016 15 135 3.2 8.0 0.20 7.54 7.49 99 1010.2
20260501224517 15 113 3.2 12.9 0.18 7.52 7.47 99 1010.0
20260501223517 15 90 3.2 14.5 0.18 7.49 7.44 99 1010.3
20260501222517 15 45 1.6 6.4 0.20 7.49 7.44 99 1011.4
20260501221537 15 68 3.2 16.1 0.23 7.49 7.44 99 1011.4
20260501220517 15 45 3.2 16.1 0.23 7.44 7.39 99 1011.6
20260501215517 15 0.0 6.4 0.18 7.34 7.29 99 1011.5
20260501214517 15 23 4.8 14.5 0.28 7.34 7.29 99 1011.2
20260501213516 15 45 3.2 9.7 0.33 7.32 7.26 99 1010.6
20260501212537 15 113 1.6 8.0 0.33 7.29 7.24 99 1010.0
20260501211517 15 90 1.6 8.0 0.33 7.26 7.21 99 1009.4
20260501210517 15 45 3.2 12.9 0.30 7.21 7.16 99 1010.7
20260501205517 15 45 1.6 6.4 0.25 7.16 7.11 99 1010.0
20260501204517 16 113 3.2 11.3 0.20 7.06 7.01 99 1010.5
20260501203517 16 90 3.2 12.9 0.18 6.99 6.93 99 1009.9
20260501202537 16 23 3.2 9.7 0.23 6.96 6.91 99 1010.4
20260501201517 16 23 3.2 11.3 0.33 6.93 6.88 100 1009.6
20260501200517 16 45 3.2 8.0 0.38 6.91 6.86 100 1009.7
20260501195517 16 45 1.6 6.4 0.46 6.91 6.86 100 1009.8
20260501194517 16 90 3.2 11.3 0.43 6.86 6.81 100 1008.8
20260501193517 16 248 3.2 8.0 0.38 6.81 6.76 99 1009.0
20260501192515 16 113 3.2 14.5 0.30 6.73 6.68 99 1008.8
20260501191537 16 113 1.6 4.8 0.18 6.60 6.55 99 1009.2
20260501190517 16 158 3.2 8.0 0.13 6.53 6.48 99 1009.0
20260501185517 16 203 1.6 6.4 0.05 6.45 6.40 99 1008.9
20260501184518 16 248 3.2 11.3 0.03 6.43 6.38 99 1008.8
20260501183517 16 225 3.2 8.0 0.03 6.43 6.38 99 1007.8
20260501182517 16 113 4.8 16.1 0.05 6.43 6.38 99 1008.4
20260501181517 16 68 3.2 14.5 0.05 6.43 6.38 99 1009.0
20260501180517 16 68 3.2 12.9 0.05 6.40 6.35 99 1009.1
20260501175517 16 23 4.8 19.3 0.15 6.40 6.35 99 1009.9
20260501174537 16 68 4.8 14.5 0.23 6.40 6.35 99 1010.3
20260501173517 16 68 3.2 17.7 0.30 6.40 6.35 99 1010.3
20260501172517 16 90 3.2 12.9 0.33 6.38 6.32 99 1010.3